Home   Weather   Bruges   Past weeks

Flag for Belgium Past Weather in Bruges, Belgium — Yesterday and Last 2 Weeks

Now
66 °F

Partly sunny.


Feels Like: 66 °F
Forecast: 57 / 67 °F
Wind: 13 mph from Southwest

Location: Oostende Airport

Current Time: Aug 17, 2017 at 3:51:33 pm

Latest Report: Aug 17, 2017 at 2:50 pm


Visibility: N/A

Pressure: 29.95 "Hg

Humidity: 88%

Dew Point: 63 °F

Location of BrugesLocation

Past Weather in Bruges — Graph

°F

Bruges Temperature Yesterday

Maximum temperature yesterday: 68 °F (at 12:50 pm)
Minimum temperature yesterday: 52 °F (at 3:50 am)
Average temperature yesterday: 61 °F

High & Low Weather Summary for the Past Weeks

 TemperatureHumidityPressure
High72 °F (Aug 14, 1:20 pm)94% (Aug 3, 8:20 am)30.24 "Hg (Aug 3, 8:20 am)
Low48 °F (Aug 6, 4:50 am)46% (Aug 13, 7:20 pm)29.77 "Hg (Aug 3, 5:20 am)
Average61 °F78%30.02 "Hg
* Reported Aug 2 2:20 pm — Aug 17 2:20 pm, Bruges. Weather by CustomWeather, © 2017

Note: Actual official high and low records may vary slightly from our data, if they occured in-between our weather recording intervals... More about our weather records

Advertising

Bruges Weather History for the Previous 24 Hours

Scroll right to see more
 ConditionsComfort  
Time TempWeatherWind HumidityBarometerVisibility
2:20 pm
Thu, Aug 17
64 °FLight rain. Broken clouds.12 mph94%29.92 "HgN/A
1:50 pm64 °FDrizzle. Broken clouds.14 mph94%29.95 "Hg2 mi
1:20 pm64 °FRain. Partly sunny.12 mph94%29.92 "Hg4 mi
12:50 pm64 °FLight rain. Partly sunny.14 mph88%29.92 "HgN/A
12:20 pm64 °FLight rain. Partly sunny.13 mph88%29.92 "HgN/A
11:50 am64 °FPartly sunny.14 mph88%29.92 "HgN/A
11:20 am63 °FPartly sunny.12 mph88%29.92 "HgN/A
10:50 am63 °FPartly sunny.13 mph88%29.92 "HgN/A
10:20 am63 °FLight rain. Broken clouds.13 mph88%29.95 "HgN/A
9:20 am63 °FRain. Partly sunny.7 mph88%29.95 "HgN/A
8:50 am63 °FLight rain. Partly sunny.7 mph83%29.95 "HgN/A
8:20 am63 °FLight rain. Partly sunny.8 mph83%29.95 "HgN/A
7:50 am63 °FLight rain. Partly sunny.5 mph83%29.95 "HgN/A
7:20 am63 °FLight rain. Partly sunny.6 mph83%29.92 "HgN/A
6:50 am63 °FPassing clouds.7 mph83%29.95 "HgN/A
6:20 am63 °FLight rain. Passing clouds.7 mph83%29.95 "HgN/A
5:50 am63 °FPassing clouds.8 mph77%29.95 "HgN/A
5:20 am63 °FPassing clouds.8 mph77%29.95 "HgN/A
4:50 am63 °FPassing clouds.10 mph73%29.95 "HgN/A
4:20 am63 °FPassing clouds.12 mph73%29.95 "HgN/A
3:50 am63 °FPassing clouds.10 mph73%29.98 "HgN/A
3:20 am61 °FPassing clouds.10 mph77%29.98 "HgN/A
2:50 am61 °FPassing clouds.8 mph77%30.01 "HgN/A
2:20 am59 °FPassing clouds.8 mph77%30.01 "HgN/A
1:50 am59 °FClear.6 mph82%30.01 "Hg10 mi
1:20 am59 °FClear.7 mph82%30.04 "Hg10 mi
12:50 am59 °FClear.6 mph82%30.04 "Hg10 mi
12:20 am59 °FClear.6 mph82%30.04 "Hg10 mi
11:50 pm
Wed, Aug 16
59 °FClear.5 mph94%30.07 "Hg10 mi
11:20 pm61 °FClear.6 mph88%30.07 "Hg10 mi
10:50 pm59 °FClear.6 mph88%30.07 "Hg10 mi
10:20 pm61 °FClear.6 mph83%30.07 "Hg10 mi
9:50 pm61 °FClear.6 mph83%30.09 "Hg10 mi
9:20 pm63 °FClear.2 mph83%30.09 "Hg10 mi
8:50 pm64 °FSunny.1 mph78%30.09 "Hg10 mi
8:20 pm66 °FSunny.1 mph78%30.09 "Hg10 mi
7:50 pm66 °FPassing clouds.3 mph73%30.12 "HgN/A
7:20 pm66 °FPassing clouds.5 mph78%30.12 "HgN/A
6:50 pm66 °FPassing clouds.7 mph78%30.12 "HgN/A
6:20 pm68 °FPassing clouds.8 mph73%30.12 "HgN/A
5:50 pm68 °FPassing clouds.9 mph73%30.12 "HgN/A
5:20 pm66 °FPassing clouds.9 mph78%30.12 "HgN/A
4:50 pm68 °FPassing clouds.9 mph73%30.12 "HgN/A
4:20 pm68 °FPassing clouds.9 mph69%30.12 "HgN/A
3:20 pm68 °FPassing clouds.5 mph73%30.12 "HgN/A
Weather by CustomWeather, © 2017

See weather overviewHow to use our weather pages